Location: Unspecified
(0.0000°N, 0.0000°E)
Time: 23:46:12
(UTC+00:00)

Explorer 7 - All Passes

Search period start: 01 October 2020 00:00
Search period end: 11 October 2020 00:00
Orbit: 484 x 679 km, 50.3° (Epoch: 01 October)

Date Brightness Start Highest point End Pass type
(mag) Time Alt. Az. Time Alt. Az. Time Alt. Az.
01 Oct - 07:54:49 10° N 07:58:14 20° NE 08:01:35 10° E daylight
01 Oct - 09:34:34 10° WNW 09:38:41 30° SW 09:42:37 10° S daylight
01 Oct - 19:57:05 10° S 20:00:06 21° SE 20:03:13 10° ENE night (unlit)
01 Oct - 21:37:34 10° W 21:40:24 19° NW 21:43:20 10° N night (unlit)
02 Oct - 07:58:33 10° NNW 08:02:59 38° NE 08:07:16 10° ESE daylight
02 Oct - 09:40:37 10° W 09:43:22 15° SW 09:46:03 10° SSW daylight
02 Oct - 20:01:03 10° SSW 20:04:46 47° SE 20:08:39 10° NE visible
03 Oct - 08:02:54 10° NNW 08:07:42 78° NE 08:12:18 10° SE daylight
03 Oct - 20:05:37 10° SW 20:09:26 71° NW 20:13:27 10° NNE visible
04 Oct - 06:29:49 10° NNE 06:31:51 12° NE 06:33:52 10° ENE daylight
04 Oct - 08:07:43 10° NW 08:12:22 51° SW 08:16:50 10° SSE daylight
04 Oct - 18:32:17 10° SSE 18:33:53 12° SE 18:35:31 10° ESE visible
04 Oct - 20:10:44 10° WSW 20:14:08 30° NW 20:17:42 10° N visible
05 Oct - 06:32:43 10° N 06:36:37 24° NE 06:40:26 10° ESE daylight
05 Oct - 08:13:06 10° WNW 08:17:03 25° SW 08:20:52 10° S daylight
05 Oct - 18:35:22 10° S 18:38:35 26° SE 18:41:52 10° ENE visible
05 Oct - 20:16:43 10° W 20:18:54 14° NW 20:21:07 10° NNW visible
06 Oct - 06:36:40 10° NNW 06:41:21 47° NE 06:45:52 10° SE daylight
06 Oct - 08:19:29 10° W 08:21:44 13° SW 08:23:56 10° SSW daylight
06 Oct - 18:39:31 10° SSW 18:43:15 61° SE 18:47:07 10° NE visible
07 Oct - 06:41:09 10° NW 06:46:01 85° WSW 06:50:44 10° SE daylight
07 Oct - 18:44:14 10° SW 18:47:56 54° NW 18:51:45 10° NNE visible
08 Oct - 05:07:20 10° NNE 05:10:13 16° NE 05:13:03 10° E visible
08 Oct - 06:46:07 10° NW 06:50:42 42° SW 06:55:09 10° SSE daylight
08 Oct - 17:10:09 10° SSE 17:12:22 15° SE 17:14:37 10° E daylight
08 Oct - 18:49:33 10° WSW 18:52:38 24° NW 18:55:49 10° N visible
09 Oct - 05:10:42 10° N 05:14:57 29° NE 05:19:08 10° ESE visible
09 Oct - 06:51:40 10° WNW 06:55:22 22° SW 06:59:00 10° S daylight
09 Oct - 17:13:40 10° SSW 17:17:04 32° SE 17:20:30 10° ENE daylight
09 Oct - 18:56:17 10° WNW 18:57:23 11° NW 18:58:30 10° NW visible
10 Oct - 05:14:50 10° NNW 05:19:39 58° NE 05:24:22 10° SE visible
10 Oct - 06:58:42 10° WSW 07:00:05 11° SW 07:01:28 10° SW daylight
10 Oct - 17:17:59 10° SW 17:21:43 80° SE 17:25:33 10° NE daylight
